Regional Weather Roundup
Issued by NWS

Home | Current Version | Previous Version | Text Only | Print | Product List | Glossary On
Versions: 1 2 3 4 5 6 7 8 9 10 11 12 13 14 15 16 17 18 19 20 21 22 23 24 25 26 27 28 29 30 31 32 33 34 35 36 37 38 39 40 41 42 43 44 45 46 47 48 49 50
000
ASUS43 KMPX 242210
RWRMN
WEATHER ROUNDUP FOR MINNESOTA
NATIONAL WEATHER SERVICE TWIN CITIES/CHANHASSEN MN
500 PM CDT THU APR 24 2014


NOTE: "FAIR" INDICATES FEW OR NO CLOUDS BELOW 12,000 FEET WITH NO
SIGNIFICANT WEATHER AND/OR OBSTRUCTIONS TO VISIBILITY. N/A MEANS
CURRENT SKY AND/OR WEATHER CONDITIONS ARE NOT AVAILABLE.

MNZ060>063-068>070-242300-
   Twin Cities Metro

CITY           SKY/WX    TMP DP  RH WIND       PRES   REMARKS
TWIN CITIES    CLOUDY    44  42  93 W5        29.68S
ST PAUL        CLOUDY    43  41  93 CALM      29.69R
CRYSTAL        CLOUDY    44  40  85 S5        29.67S
BLAINE         CLOUDY    45  43  93 CALM      29.68R
EDEN PRAIRIE   CLOUDY    46  43  87 W3        29.67S
LAKEVILLE      CLOUDY    43  41  93 W5        29.67F
SOUTH ST PAUL  CLOUDY    45  44  95 SW5       29.68R
LAKE ELMO      CLOUDY    43  41  93 S3        29.68S
$$
MNZ001>005-007-008-013>017-022>024-027-028-242300-
   Northwest Minnesota

CITY           SKY/WX    TMP DP  RH WIND       PRES   REMARKS
BEMIDJI        SNOW      32  32 100 CALM      29.71F VSB 1/2
HALLOCK        CLOUDY    41  37  87 E10       29.71F
ROSEAU         MIX PCPN  34  30  86 E5        29.75S WCI  30
WARROAD        LGT SNOW  34  30  86 E7        29.76S WCI  28
THIEF RVR FALL CLOUDY    36  30  80 E8        29.72F
CROOKSTON      CLOUDY    39  39 100 SE7       29.71S
FOSSTON        LGT SNOW  34  32  93 CALM      29.72F VSB 3/4
DETROIT LAKES  CLOUDY    37  36  93 SE6       29.69F
MOORHEAD       CLOUDY    48  46  93 CALM      29.69F
PARK RAPIDS    LGT SNOW  33  33 100 CALM      29.70S FOG
$$
MNZ006-009>011-018-025>026-242300-
   North Central Minnesota

CITY           SKY/WX    TMP DP  RH WIND       PRES   REMARKS
BAUDETTE       RAIN      35  34  96 SE10      29.75F FOG     WCI  27
FLAG ISLAND    RAIN      34  34 100 E9G17     29.76S WCI  26
INTL FALLS     LGT RAIN  35  33  92 E9        29.77F FOG     WCI  28
WASKISH        LGT SNOW  34  32  93 CALM      29.74S VSB 3/4
BIG FORK       CLOUDY    34  32  93 E5        29.74F VSB 1   WCI  30
LONGVILLE      SNOW      34  32  93 CALM      29.71S VSB 1/2
GRAND RAPIDS   CLOUDY    34  30  86 E3        29.70F VSB 1
CRANE LAKE     RAIN      34  34 100 E3        29.81F
ORR            RAIN      34  30  86 E6        29.74F WCI  29
COOK           LGT SNOW  34  32  93 E5        29.76F WCI  30
$$
MNZ012-019>021-037-242300-
   Northeast Minnesota

CITY           SKY/WX    TMP DP  RH WIND       PRES   REMARKS
DULUTH         SNOW      33  31  92 E20       29.72F VSB 1/2 WCI  21
ELY            LGT SNOW  34  30  86 E10       29.78F VSB 1   WCI  26
HIBBING        LGT SNOW  34  32  92 E12       29.73F VSB 3/4 WCI  25
EVELETH        LGT SNOW  32  32 100 E6        29.76S VSB 1   WCI  26
DULUTH HARBOR  MIX PCPN  34  30  86 NE16G22   29.77F WCI  23
TWO HARBORS    LGT SNOW  32  27  80 E16G22    29.76F VSB 1   WCI  21
SILVER BAY     LGT SNOW  30  30 100 NE13G20   29.78F VSB 3/4 WCI  20
GRAND MARAIS     N/A     34  32  92 NE17G25   29.89F WCI  23
G MARAIS ARPRT SNOW      30  28  93 E15G21    29.85F VSB 1/2 WCI  19
$$
MNZ029>031-032-039>041-046>048-054>057-064-242300-
   West Central Minnesota

CITY           SKY/WX    TMP DP  RH WIND       PRES   REMARKS
FERGUS FALLS   CLOUDY    46  39  76 S3        29.65F
WHEATON        SUNNY     55  46  71 CALM      29.71R THUNDER
MORRIS         MOSUNNY   54  43  66 NW6       29.68F
ALEXANDRIA     CLOUDY    45  39  79 VRB5      29.69F
ELBOW LAKE     CLOUDY    47  40  77 CALM      29.69F
WADENA         CLOUDY    37  36  93 CALM      29.69F
GLENWOOD       CLOUDY    48  41  76 W5        29.69F
APPLETON       MOSUNNY   55  43  62 CALM      29.69F
BENSON         MOSUNNY   54  43  66 N3        29.69F
ORTONVILLE     MOSUNNY   55  43  62 SE3       29.68F
MADISON        SUNNY     57  45  62 CALM      29.69F
WILLMAR        PTSUNNY   52  43  71 NW8       29.71S
$$
MNZ033>034-036-042>043-049>051-058-059-242300-
   Central Minnesota

CITY           SKY/WX    TMP DP  RH WIND       PRES   REMARKS
ST CLOUD       CLOUDY    43  37  79 CALM      29.69F
SAUK CENTRE    CLOUDY    41  38  87 CALM      29.69F
PAYNESVILLE    CLOUDY    44  40  85 CALM      29.70S
AITKIN         LGT SNOW  36  30  80 E3        29.68F
PINE RIVER     MIX PCPN  34  34 100 CALM      29.74S VSB 1
BRAINERD       LGT SNOW  38  32  79 CALM      29.71S
STAPLES        RAIN      36  36 100 CALM      29.70S
LONG PRAIRIE   CLOUDY    37  36  93 CALM      29.69F
LITTLE FALLS   MIX PCPN  37  34  87 CALM      29.70S
LITCHFIELD     CLOUDY    46  43  87 W7        29.70S
BUFFALO        CLOUDY    43  40  88 CALM      29.70R
MAPLE LAKE     CLOUDY    44  42  93 CALM      29.70S
$$
MNZ037-044-045-052-053-242300-
   East Central Minnesota

CITY           SKY/WX    TMP DP  RH WIND       PRES   REMARKS
PRINCETON      LGT RAIN  43  39  87 CALM      29.68S
MORA           RAIN      36  34  93 CALM      29.70F
CAMBRIDGE      DRIZZLE   45  37  76 CALM      29.66F
RUSH CITY      CLOUDY    41  39  95 NE3       29.68F
MOOSE LAKE     LGT SNOW  32  32 100 NE5       29.69F WCI  27
HINCKLEY       CLOUDY    36  36 100 NE6       29.69F
CLOQUET        LGT SNOW  34  32  93 E12       29.70F VSB 3/4 WCI  25
MCGREGOR       CLOUDY    34  34 100 E7        29.70F WCI  28
$$
MNZ071>073-080-081-089-090-097-098-242300-
   Southwest Minnesota

CITY           SKY/WX    TMP DP  RH WIND       PRES   REMARKS
MONTEVIDEO     MOSUNNY   57  55  94 N9        29.70F
GRANITE FALLS  PTSUNNY   54  42  64 N9        29.71F
CANBY          MOSUNNY   55  43  63 N6        29.70F
MARSHALL       PTSUNNY   55  41  58 N10       29.69F
REDWOOD FALLS  MOSUNNY   53  43  68 NW9G20    29.70R
OLIVIA         PTSUNNY   52  43  71 NW10G16   29.69S
PIPESTONE      SUNNY     57  41  54 N3        29.69F
WINDOM         PTSUNNY   54  43  66 NW15G21   29.72S
WORTHINGTON    MOSUNNY   55  37  50 N15G22    29.74S
JACKSON        CLOUDY    54  43  66 NW17G23   29.72R
TRACY          MOSUNNY   53  44  71 N10       29.72S
SLAYTON        MOSUNNY   55  41  60 N10       29.72F
$$
MNZ065>067-074>077-082>085-091>093-242300-
   South Central Minnesota

CITY           SKY/WX    TMP DP  RH WIND       PRES   REMARKS
MANKATO        CLOUDY    46  41  81 NW10      29.70S
NEW ULM        MOSUNNY   52  45  76 NW12      29.69F
ST JAMES       PTSUNNY   54  45  71 NW12      29.71S
FAIRMONT       PTSUNNY   52  41  66 NW16      29.72S
GLENCOE        CLOUDY    47  41  78 W8        29.68F
FARIBAULT      CLOUDY    48  43  81 W8        29.67F
OWATONNA       PTSUNNY   46  43  87 W13       29.68S
WASECA         CLOUDY    45  37  76 W12       29.70S
ALBERT LEA     CLOUDY    48  45  87 W13       29.67R
$$
MNZ078>079-086>088-094>096-242300-
   Southeast Minnesota

CITY           SKY/WX    TMP DP  RH WIND       PRES   REMARKS
ROCHESTER      CLOUDY    47  43  86 W9        29.67R FOG
RED WING       CLOUDY    45  43  93 CALM      29.67R
STANTON        CLOUDY    45  42  88 CALM      29.65F
DODGE CENTER   CLOUDY    48  45  87 W9        29.66R
WINONA         CLOUDY    43  43 100 SE5       29.67S FOG
AUSTIN         CLOUDY    48  45  87 NW10      29.67R
PRESTON        CLOUDY    47  46  99 SW5       29.65S FOG
$$
ABBREVIATIONS USED IN REMARKS
   TC - TEMPERATURES IN CELSIUS
  WCI - WIND CHILL INDEX
   HX - HEAT INDEX
  VSB - VISIBILITY
$$



USA.gov is the U.S. government's official web portal to all federal, state and local government web resources and services.